Location: Chester
(43.2628°N, 72.5951°W)
Time: 16:11:03
(UTC-05:00)

ISS - Pass Details

Date: 26 January 2021
Orbit: 417 x 422 km, 51.6° (Epoch: 08 March)

Event Time Altitude Azimuth Distance (km) Brightness Sun altitude
Rises 17:22:42 0° 270° (W) 2,367 1.7 -5.5°
Reaches altitude 10° 17:25:00 10° 283° (WNW) 1,505 0.1 -5.9°
Maximum altitude 17:27:56 27° 343° (NNW) 852 -2.2 -6.4°
Drops below altitude 10° 17:30:53 10° 44° (NE) 1,511 -1.5 -6.9°
Enters shadow 17:31:26 - 48° (NE) 1,705 -1.2 -7.0°
